This demonstration page uses our WeatherBlox Daily Observations layout. Learn more.

Left ArrowRight Arrow

Hourly Observations for January 6, 2016

Temp ( °F °C ) Dew Point ( °F °C ) Humidity (%) Winds ( mph kmh ) Pressure ( in mb ) Visibility ( mi km ) Precip ( " mm )
12:54 am 00:54 Clear 33 0.6 26 -3.3 75 75 S 15 24 30.10 1019 10 16 0.00 0.00
1:54 am 01:54 Partly Cloudy 32 0 26 -3.3 79 79 S 13 20 30.09 1019 10 16 0.00 0.00
2:54 am 02:54 Cloudy 33 0.6 26 -3.3 75 75 S 12 19 30.09 1019 10 16 0.00 0.00
3:19 am 03:19 Cloudy 33 0.6 26 -3.3 75 75 S 12 19 30.12 1020 10 16 0.00 0.00
3:54 am 03:54 Cloudy with Light Wintry Mix 33 0.6 27 -2.8 78 78 S 13 20 30.08 1019 9 14 0.00 0.03
3:58 am 03:58 Cloudy with Light Wintry Mix 34 1 27 -3 75 75 S 14 22 30.12 1020 9 14 0.00 0.00
4:35 am 04:35 Cloudy 34 1.1 28 -2.2 79 79 S 13 20 30.09 1019 9 14 0.00 0.03
4:54 am 04:54 Cloudy 34 1.1 29 -1.7 82 82 S 13 20 30.06 1018 9 14 0.00 0.03
5:10 am 05:10 Cloudy 34 1 28 -2 81 81 S 13 20 30.09 1019 8 13 0.00 0.00
5:38 am 05:38 Cloudy 34 1 30 -1 87 87 S 14 22 30.09 1019 8 13 0.00 0.00
5:54 am 05:54 Cloudy 34 1.1 30 -1.1 85 85 S 14 22 30.05 1018 8 13 0.00 0.00
6:08 am 06:08 Cloudy 34 1.1 30 -1.1 85 85 S 15 24 30.09 1019 8 13 0.00 0.00
6:35 am 06:35 Cloudy 34 1.1 30 -1.1 85 85 S 15 24 30.09 1019 8 13 0.00 0.00
6:54 am 06:54 Cloudy 34 1.1 30 -1.1 85 85 S 18 30 30.05 1018 8 13 0.00 0.00
7:54 am 07:54 Cloudy with Light Snow 34 1.1 30 -1.1 85 85 S 12 19 30.04 1017 5 8 0.00 0.03
8:54 am 08:54 Cloudy with Mist and Fog 34 1.1 31 -0.6 89 89 S 12 19 30.04 1017 6 10 0.00 0.03
9:54 am 09:54 Cloudy 35 1.7 30 -1.1 82 82 S 14 22 30.05 1018 7 11 0.00 0.00
10:54 am 10:54 Cloudy 35 1.7 31 -0.6 85 85 S 15 24 30.04 1017 7 11 0.00 0.00
11:54 am 11:54 Cloudy 35 1.7 31 -0.6 85 85 S 12 19 30.02 1017 7 11 0.00 0.00
12:54 pm 12:54 Cloudy with Mist and Fog 35 1.7 32 0 89 89 S 10 17 29.98 1015 3 5 0.00 0.00
1:22 pm 13:22 Cloudy with Light Rain 36 2 34 1 93 93 S 9 15 30.00 1016 2 3 0.00 0.00
1:29 pm 13:29 Cloudy with Light Rain 36 2 34 1 93 93 S 9 15 30.00 1016 2 3 0.00 0.00
1:54 pm 13:54 Cloudy with Mist and Fog 35 1.7 33 0.6 93 93 S 9 15 29.96 1015 2 3 0.00 0.03
2:54 pm 14:54 Cloudy with Light Rain 35 1.7 34 1.1 96 96 SSE 7 11 29.95 1014 2 3 0.00 0.03
3:10 pm 15:10 Cloudy with Mist and Fog 36 2 34 1 93 93 SSE 8 13 29.97 1015 2 3 0.00 0.00
3:42 pm 15:42 Cloudy with Mist and Fog 36 2 34 1 93 93 SSE 7 11 29.97 1015 3 5 0.00 0.00
3:54 pm 15:54 Cloudy with Mist and Fog 35 1.7 33 0.6 93 93 SSE 8 13 29.95 1014 3 5 0.00 0.03
4:17 pm 16:17 Cloudy with Mist and Fog 35 1.7 33 0.6 93 93 SSE 8 13 29.97 1015 3 4 0.00 0.00
4:45 pm 16:45 Cloudy with Mist and Fog 35 1.7 33 0.6 93 93 SSE 6 9 30.00 1016 3 5 0.00 0.00
4:54 pm 16:54 Cloudy with Mist and Fog 35 1.7 33 0.6 93 93 SSE 7 11 29.96 1014 3 5 0.00 0.00
5:54 pm 17:54 Cloudy with Mist and Fog 34 1.1 33 0.6 97 97 SSE 9 15 29.96 1015 4 6 0.00 0.00
6:54 pm 18:54 Cloudy with Mist and Fog 34 1.1 33 0.6 97 97 SSE 7 11 29.97 1015 3 5 0.00 0.00
7:54 pm 19:54 Cloudy with Mist and Fog 34 1.1 33 0.6 97 97 SSE 6 9 29.97 1015 3 5 0.00 0.00
8:54 pm 20:54 Cloudy with Mist and Fog 34 1.1 33 0.6 97 97 SE 7 11 29.98 1015 4 6 0.00 0.00
9:54 pm 21:54 Cloudy with Mist and Fog 34 1.1 33 0.6 97 97 SE 6 9 29.96 1015 4 6 0.00 0.00
10:32 pm 22:32 Cloudy with Mist and Fog 36 2 34 1 93 93 SSE 6 9 30.00 1016 3 5 0.00 0.00
10:54 pm 22:54 Cloudy with Mist and Fog 34 1.1 34 1.1 100 100 SSE 7 11 29.96 1015 3 5 0.00 0.00
11:33 pm 23:33 Cloudy with Mist and Fog 35 1.7 34 1.1 96 96 SE 5 7 30.00 1016 3 4 0.00 0.03
11:54 pm 23:54 Cloudy with Mist and Fog 35 1.7 34 1.1 96 96 SE 5 7 29.95 1014 3 4 0.00 0.03

Powered by AerisWeather